Wind_Speed
126 127 128 129 130 130 131 133 133 135 136 137 137 139 140 141 141 142 143 144 145 145 146 146 147 148 148 149 150 150 151 151 152 153 153 153 153 153 154 154 154 154 154 154 154 154 153 153 153 153 152 152 153 153 153 153 153 152 152 151 152 153 153 153 151 148 145 145 143 142 140 139 138 137 136 135 133 132 132 131 130 128 127 125 124
129 130 131 132 132 133 134 135 136 137 138 139 140 141 142 143 144 145 146 147 148 149 149 150 151 151 152 152 153 153 154 154 155 156 156 156 157 157 157 158 158 158 158 158 158 158 158 158 158 157 157 156 156 156 156 156 156 156 155 155 155 155 155 155 154 152 148 146 144 143 143 143 141 141 140 139 137 135 134 133 132 131 130 128 127
132 133 134 136 136 137 138 139 140 140 141 142 143 143 144 145 146 147 148 149 150 151 152 153 154 154 155 156 156 157 158 158 159 159 160 160 161 161 161 162 162 162 162 162 162 162 161 161 161 161 161 160 160 159 159 159 159 159 158 158 157 157 157 157 156 154 151 148 146 144 144 144 143 142 142 141 140 139 137 136 135 134 133 131 130
134 136 137 138 139 140 141 142 143 143 144 145 146 147 147 148 149 150 151 152 152 153 154 155 156 156 157 158 159 159 160 161 162 162 163 163 163 163 164 164 164 164 164 164 164 164 164 164 163 163 163 163 163 162 162 162 162 161 161 160 159 159 159 158 158 157 154 151 148 146 145 145 144 144 144 143 142 141 139 138 137 136 136 134 133
137 138 139 140 141 142 143 144 145 146 147 147 148 149 150 150 151 152 153 154 155 156 156 157 158 159 159 160 161 161 162 163 163 164 164 165 165 165 165 166 166 166 166 166 166 166 165 165 165 165 165 165 164 164 164 164 164 164 163 162 161 161 161 161 160 160 158 155 152 150 148 147 146 146 146 145 145 143 142 141 140 139 138 137 135
139 140 141 142 143 144 145 146 147 148 148 149 150 151 152 153 153 154 155 156 157 157 158 159 160 160 161 162 162 163 164 164 165 165 166 166 167 167 167 167 167 167 167 167 167 167 167 167 166 167 166 166 166 166 166 166 166 166 165 164 164 163 163 163 162 162 161 159 156 153 151 149 148 147 148 148 147 146 144 144 143 142 140 139 137
140 141 142 143 144 145 146 147 148 149 150 150 151 152 153 154 155 156 157 157 158 159 159 160 161 161 162 163 163 164 165 165 166 166 166 167 167 168 168 168 168 169 169 169 169 169 169 169 168 168 168 168 168 167 167 168 168 167 167 167 167 166 165 164 164 163 162 161 159 156 154 152 151 150 150 150 150 148 147 146 145 144 143 142 140
141 142 143 144 145 146 147 148 148 149 150 151 152 153 154 154 155 156 157 157 158 159 159 160 160 161 162 162 163 163 164 165 165 165 166 166 166 167 167 168 168 168 168 169 169 169 169 169 170 169 169 169 169 169 169 169 168 168 168 168 169 168 167 166 166 165 164 163 161 159 157 155 154 152 152 152 151 151 150 149 148 146 145 144 144
141 142 143 144 144 145 146 147 147 148 149 150 151 152 152 153 154 155 155 156 157 157 158 158 159 159 160 160 161 161 162 162 163 163 163 163 163 163 164 164 165 166 166 166 167 167 168 169 169 169 169 169 169 169 169 169 169 169 168 169 169 169 169 168 168 167 166 165 163 161 160 158 157 156 155 154 153 153 153 152 151 149 148 147 146
140 140 141 142 142 143 144 145 145 146 147 148 148 149 150 151 151 152 153 153 154 155 155 156 156 156 157 157 158 159 160 160 160 160 160 160 160 159 160 160 160 161 161 162 162 163 165 165 166 166 166 167 167 168 168 169 169 169 169 169 169 169 169 169 169 169 168 167 166 164 162 161 160 159 158 157 156 156 155 154 153 152 151 150 148
136 137 138 139 140 140 141 142 143 144 144 145 146 147 148 149 149 150 151 151 152 152 153 153 154 154 155 155 155 156 157 158 158 157 157 157 156 156 155 156 156 157 157 157 158 159 160 160 161 162 162 163 163 163 164 165 165 166 166 166 167 168 168 169 169 170 170 169 168 166 165 163 162 162 161 160 159 159 158 157 155 155 154 153 151
132 133 134 135 136 137 138 138 139 140 141 142 142 143 144 145 146 146 147 148 148 149 150 151 151 152 152 153 153 154 155 155 155 155 154 154 154 153 152 152 152 152 153 153 154 155 156 156 157 158 159 159 159 160 160 160 161 161 161 162 162 163 164 165 166 167 168 168 168 167 166 165 165 164 164 163 163 162 161 160 159 157 156 155 154
126 127 128 129 130 131 132 133 134 134 136 137 138 139 140 140 141 142 143 144 145 146 147 148 149 150 151 151 152 152 153 154 153 153 152 151 150 149 148 148 148 148 148 148 149 150 151 151 152 153 154 155 156 157 157 157 158 158 158 158 158 159 160 161 162 163 164 164 164 164 164 165 165 165 165 165 165 164 163 162 162 160 159 157 155
119 120 121 122 124 125 125 126 127 129 130 131 132 133 134 136 136 137 138 139 141 142 143 145 146 148 149 149 150 150 151 152 151 151 150 149 147 146 145 144 143 143 143 143 144 144 145 145 146 147 148 149 151 152 152 153 154 154 154 155 155 156 156 157 159 160 160 160 160 160 161 162 163 163 164 165 165 164 164 163 162 162 160 158 156
111 113 114 115 117 117 118 120 121 123 124 125 127 128 129 130 131 132 134 135 137 139 140 142 144 145 147 147 147 148 148 148 148 147 146 145 144 142 141 140 139 138 138 138 138 139 139 140 140 141 142 143 144 146 147 147 148 148 148 149 150 151 152 153 155 156 157 157 157 157 157 158 160 161 162 163 163 163 163 162 161 161 160 159 157
105 107 109 110 111 112 114 115 117 118 120 121 123 124 126 127 128 129 131 133 135 137 139 141 143 144 145 146 146 146 146 146 146 145 144 142 141 139 138 137 136 136 135 135 135 135 135 136 136 136 136 137 138 140 141 142 142 142 142 142 143 144 146 148 149 151 152 153 154 154 154 155 156 157 158 159 160 161 162 161 160 160 160 159 157
102 104 105 106 108 109 110 112 113 115 116 118 119 121 122 124 125 127 129 131 134 136 139 141 142 143 144 144 143 143 143 143 142 142 141 139 138 136 135 134 133 132 132 132 132 132 132 132 132 132 132 133 134 135 136 137 137 136 136 137 138 139 140 142 143 145 146 148 149 149 150 151 151 152 153 155 156 157 158 158 158 158 159 158 157
99 101 103 104 105 107 108 109 111 112 114 115 117 118 120 122 124 126 128 131 133 136 138 140 141 142 141 141 139 138 138 138 137 137 136 134 133 131 129 128 127 126 126 126 127 127 128 128 128 128 128 128 129 130 132 132 132 131 131 132 133 134 135 137 138 140 141 143 144 145 145 146 147 147 148 149 150 152 153 153 153 154 155 156 154
97 99 101 102 104 105 106 108 109 110 111 112 114 116 117 119 122 125 128 131 133 136 138 140 141 141 141 139 138 136 135 135 134 134 133 131 129 127 125 123 122 121 121 121 121 122 123 123 124 124 123 123 124 125 126 127 128 128 127 128 128 128 129 131 133 135 136 138 139 140 141 142 142 143 143 144 145 146 147 147 147 148 149 151 151
94 96 98 99 101 102 103 104 105 106 107 108 110 112 114 116 119 122 126 130 133 136 138 139 140 140 140 138 137 136 134 134 133 132 131 129 127 124 122 120 118 117 117 117 117 117 118 119 119 119 119 119 119 120 121 122 123 123 124 124 124 124 124 126 128 130 131 133 134 136 137 138 139 139 140 140 141 141 142 142 142 142 142 143 143
91 93 95 96 97 98 99 100 101 101 102 103 105 108 111 113 117 121 125 128 131 134 136 137 137 138 138 137 136 135 134 133 132 130 129 127 125 122 120 117 116 114 113 113 113 114 114 114 115 115 115 115 115 115 115 116 118 118 119 120 121 121 121 122 123 124 126 127 129 130 132 133 134 135 136 137 137 138 138 138 138 137 137 136 136
87 89 90 91 92 92 93 94 95 95 97 98 101 104 108 112 116 120 123 126 129 131 133 134 134 134 135 134 134 133 132 131 129 128 126 125 123 121 118 116 114 111 110 110 111 111 111 111 111 111 112 111 111 110 110 111 112 113 114 115 117 117 118 119 119 120 121 122 123 125 126 128 129 130 132 133 134 134 135 134 134 134 133 132 130
84 84 85 85 86 86 87 88 89 90 92 95 98 101 106 110 114 118 121 123 126 128 129 130 130 130 130 129 129 128 127 126 125 124 122 120 119 117 115 113 111 109 107 107 107 108 108 108 107 108 109 108 106 105 105 106 107 108 109 110 111 113 114 115 116 116 117 117 118 119 120 122 123 124 126 127 129 130 131 131 131 130 130 128 127
81 81 81 81 81 82 82 84 85 87 90 93 96 100 103 107 111 115 118 120 122 123 124 124 124 123 123 122 122 122 121 120 119 117 116 114 113 112 111 109 107 105 104 103 103 104 104 104 105 105 105 104 102 102 102 103 103 104 104 105 106 107 108 110 111 111 112 112 113 113 114 116 117 118 120 121 123 124 125 126 127 127 126 125 124
78 78 78 78 78 78 79 81 83 85 88 91 94 98 101 104 107 111 114 116 117 118 118 118 117 116 115 114 114 114 113 113 112 111 110 108 107 106 105 104 103 101 100 99 99 100 100 101 101 101 101 100 100 100 100 100 99 100 100 100 101 102 103 104 105 106 107 107 107 107 108 109 111 112 114 115 117 118 119 120 121 122 122 122 120
77 77 76 75 75 76 77 79 82 84 87 90 92 95 98 101 104 107 109 111 112 112 112 111 110 108 107 106 106 105 105 105 105 105 104 103 102 101 100 99 99 98 97 96 96 96 97 97 97 96 97 97 97 97 97 97 97 97 97 97 97 97 98 98 99 100 101 102 102 102 103 103 104 106 108 109 111 112 113 114 115 116 117 117 116
76 76 75 74 74 75 76 78 80 83 86 88 91 93 96 98 101 103 105 105 105 105 105 104 103 101 100 99 99 98 98 99 99 99 98 98 98 97 97 96 95 94 94 93 93 93 94 93 93 93 93 94 94 94 94 94 95 94 95 94 94 94 94 94 95 96 97 97 97 98 98 98 99 100 101 103 105 106 107 108 109 110 111 112 111
77 76 75 74 74 75 76 78 80 82 85 87 89 92 94 96 98 100 101 101 100 99 98 97 96 95 94 93 93 92 93 94 94 94 94 93 93 93 93 93 92 91 91 91 90 90 90 90 90 90 90 90 90 90 90 91 91 92 92 92 92 92 91 92 92 92 93 93 93 94 94 94 94 95 96 97 99 100 101 102 103 104 105 106 106
78 77 76 75 75 76 77 79 80 82 84 86 88 91 93 95 96 97 97 97 96 94 92 91 90 89 88 88 88 87 88 89 91 91 90 90 89 89 88 88 88 88 88 87 86 86 87 87 87 87 87 87 87 87 87 87 88 88 88 89 89 89 89 89 89 90 90 90 90 90 91 91 91 91 91 92 94 95 96 97 97 98 99 100 101
81 79 78 77 77 78 79 80 82 84 85 86 88 90 92 94 94 94 94 93 92 90 88 86 85 84 83 83 83 83 83 84 86 86 87 86 86 86 85 85 85 85 85 84 83 84 84 84 84 84 84 84 84 83 83 84 84 85 85 85 85 86 86 86 87 87 88 88 88 88 88 89 88 88 88 89 89 91 92 92 92 93 94 95 96
84 82 81 80 80 80 81 82 84 85 86 87 88 89 90 92 93 93 92 90 89 87 85 83 81 80 79 78 78 79 80 80 80 81 81 81 82 82 83 83 83 83 82 81 81 82 82 81 82 82 82 81 81 80 80 80 81 81 82 82 82 82 82 83 83 84 85 85 86 86 86 87 87 87 87 87 87 88 88 88 88 88 89 90 91
87 86 84 83 83 83 84 84 86 87 88 88 88 89 89 89 90 91 90 89 88 86 84 81 79 78 77 75 74 75 77 77 77 77 76 76 77 77 78 79 80 80 79 79 79 79 80 80 80 80 80 80 79 78 78 78 78 78 79 79 80 79 79 79 80 80 81 82 82 83 84 84 85 85 86 85 86 86 86 86 86 85 85 86 87
91 89 87 86 86 86 86 87 88 89 89 89 89 89 89 88 87 86 87 87 87 86 84 82 79 77 75 74 72 72 73 74 74 74 73 72 72 72 74 76 77 76 76 77 77 78 78 78 78 78 78 78 78 77 76 76 75 75 76 76 76 77 76 76 76 77 78 78 79 79 80 81 82 82 83 83 83 84 84 85 84 83 82 82 84
95 93 91 90 90 90 89 89 90 90 91 90 90 90 89 87 85 83 82 82 83 84 85 83 81 78 75 73 72 71 71 71 71 71 70 69 69 68 69 71 73 73 73 73 74 76 76 76 76 76 76 76 76 76 75 74 74 73 73 73 73 74 74 74 73 74 75 75 76 76 77 78 79 79 80 80 80 81 81 82 82 80 79 79 80
98 96 94 93 92 92 91 91 92 92 92 92 91 90 89 87 84 81 79 78 79 80 81 82 82 80 76 73 71 71 71 71 70 69 67 67 66 66 66 67 69 70 70 70 71 73 74 75 75 74 74 74 75 74 74 73 72 72 71 71 71 71 71 71 71 71 71 72 72 73 74 75 76 76 77 78 78 78 79 79 79 78 78 77 76
100 98 96 95 94 94 93 93 93 93 93 92 91 90 88 86 83 80 78 77 77 77 77 78 79 79 77 74 71 69 70 70 69 68 66 65 65 65 65 65 66 67 68 68 68 69 70 71 72 72 72 72 73 73 72 72 71 70 69 69 69 68 68 68 68 69 69 69 69 70 71 72 72 73 74 74 75 76 76 77 76 76 76 76 75
103 101 99 97 96 95 95 95 95 95 94 93 92 90 88 85 82 79 77 76 76 75 75 76 76 76 75 74 72 70 69 69 68 66 65 64 63 63 63 64 65 65 66 66 67 67 68 68 68 69 69 70 70 70 70 70 69 69 68 67 66 66 65 65 65 66 66 66 66 67 68 69 69 69 70 71 72 72 73 74 74 73 73 74 74
105 103 101 99 98 97 97 97 96 96 95 94 92 90 87 84 81 79 77 76 75 75 74 74 74 73 73 72 71 70 69 69 68 66 65 64 62 61 61 62 63 63 64 64 65 66 67 67 66 66 66 66 67 67 67 67 67 67 66 66 65 64 63 63 64 63 64 63 63 64 64 65 66 66 67 68 68 69 70 70 71 70 70 70 71
108 105 103 101 100 99 98 98 98 98 97 95 93 91 88 84 81 79 77 75 75 74 73 73 73 72 71 70 69 69 70 70 68 67 66 65 63 62 61 60 61 61 62 62 62 63 65 65 65 64 64 64 64 64 64 64 65 64 64 64 63 62 62 62 62 62 62 61 61 61 61 62 63 64 64 64 65 66 67 67 67 67 67 67 68
109 107 105 103 101 100 100 100 99 99 98 96 94 91 87 84 81 78 77 75 74 73 73 72 72 71 70 69 68 68 69 69 69 68 67 66 65 63 61 60 60 60 60 60 60 60 62 63 63 62 62 62 62 62 62 62 62 62 61 61 61 61 60 60 60 61 60 59 59 59 59 59 60 61 61 61 62 63 64 64 63 64 64 65 65
111 109 106 104 103 102 101 101 101 100 99 97 94 91 87 83 81 78 77 75 74 73 72 72 71 70 70 69 68 68 68 68 69 69 68 67 66 64 63 61 60 59 59 58 58 58 59 60 60 60 59 59 59 60 60 60 60 59 59 59 59 58 58 57 58 58 59 58 57 57 57 57 58 58 58 58 59 60 61 61 61 61 61 62 63
113 111 108 106 104 103 102 102 102 102 100 98 95 91 87 83 81 78 77 75 74 73 72 71 71 70 70 68 68 68 67 67 67 67 67 66 65 64 63 62 60 59 58 58 58 58 58 58 58 57 57 57 57 58 58 58 58 57 57 57 56 56 55 55 55 56 56 56 56 56 56 55 56 56 56 56 56 57 58 58 58 58 59 59 60
113 111 109 107 106 104 104 103 103 102 101 98 95 91 86 83 81 79 77 75 74 73 72 71 70 70 70 69 68 68 67 67 66 65 64 64 64 63 62 61 60 58 57 57 57 57 57 57 57 56 55 54 54 55 56 56 56 56 55 55 55 54 54 54 53 53 54 54 54 54 54 53 53 54 54 54 54 55 56 56 55 55 56 57 58
114 112 110 108 106 105 104 104 103 102 100 98 94 90 86 83 81 79 77 75 74 73 72 71 70 69 69 69 68 68 67 67 65 64 63 62 62 61 61 60 59 58 56 55 55 55 56 56 56 55 54 52 52 53 53 54 54 54 54 53 53 53 52 52 51 51 52 52 52 52 52 52 52 52 52 52 52 53 53 54 54 53 53 54 55
114 112 110 108 107 106 106 106 105 103 100 97 93 90 86 83 81 79 77 75 74 73 72 70 69 69 69 69 68 68 68 67 66 64 63 61 61 60 60 59 58 57 56 54 53 54 54 55 55 55 53 52 51 51 51 52 52 52 52 51 51 51 51 50 49 49 50 51 50 50 50 50 50 50 50 50 50 51 51 52 52 51 51 52 52
113 111 109 108 107 107 107 107 106 104 101 97 93 89 86 83 81 79 77 76 74 72 71 70 69 69 68 68 68 68 67 67 66 64 62 61 60 59 59 58 58 57 55 54 52 52 52 53 53 53 52 51 50 49 50 50 50 50 50 50 50 49 49 48 48 48 48 49 49 48 48 48 48 49 48 48 48 49 49 50 50 50 50 50 50
114 111 110 108 108 108 108 107 106 104 101 97 93 89 86 83 81 79 77 76 74 72 71 70 69 69 68 67 67 67 67 66 66 64 63 61 59 58 58 58 57 57 55 53 51 51 51 51 51 51 51 50 49 48 48 48 49 48 48 48 48 48 47 46 46 46 46 47 47 46 46 46 46 47 47 47 47 47 47 48 48 48 48 48 48
114 112 110 109 108 109 108 108 106 104 100 97 93 89 86 83 81 79 77 75 74 72 71 71 70 69 68 68 67 67 66 66 65 64 62 61 59 58 58 57 57 56 55 53 51 50 50 50 50 49 49 49 48 47 47 47 47 47 47 47 47 47 46 45 44 44 44 45 45 45 44 44 45 45 45 45 45 45 46 46 46 46 46 46 46
114 112 111 110 110 110 109 108 106 104 100 96 92 88 86 83 81 79 77 75 73 72 72 71 70 69 68 68 67 67 66 65 64 63 62 60 58 57 57 57 56 55 55 53 50 49 49 49 49 48 47 47 47 46 46 45 45 45 46 46 46 45 45 44 43 42 42 43 43 43 43 42 43 44 44 44 43 43 44 45 45 45 44 44 45
114 112 112 112 112 111 111 109 106 103 99 95 91 88 85 83 81 79 77 75 73 72 72 71 70 69 68 68 67 67 66 65 64 63 61 59 57 56 55 55 55 54 53 52 50 48 48 48 48 47 46 45 45 45 44 44 43 44 44 45 45 44 43 43 42 41 41 41 41 42 41 41 41 42 42 42 42 42 42 43 44 43 43 43 43
113 112 112 112 112 112 111 109 106 103 99 94 91 88 85 83 81 79 77 74 73 72 72 71 71 70 69 68 67 66 65 64 64 63 61 59 57 55 53 53 54 53 52 51 50 48 47 47 47 46 45 44 44 44 43 42 42 42 43 43 43 42 42 41 41 40 40 40 40 40 40 40 40 40 41 41 41 41 41 42 42 42 42 42 42
Wind_Direction
265 265 265 265 265 265 265 265 266 266 266 266 266 266 267 267 267 268 268 269 269 269 270 270 271 271 271 272 272 272 272 272 273 273 273 273 273 273 273 273 273 273 273 273 273 273 273 273 273 273 273 273 273 274 274 274 274 274 274 274 275 275 276 276 277 277 277 278 278 278 278 277 276 276 275 274 274 273 273 273 273 273 273 273 274
267 266 266 266 266 266 266 266 266 266 266 266 266 266 266 266 267 267 267 267 268 268 268 269 269 269 270 270 271 271 271 272 272 272 273 273 273 273 274 274 274 274 274 274 274 275 275 275 275 275 275 274 274 274 274 275 275 275 275 275 275 275 275 276 277 277 277 277 276 276 277 277 276 276 276 276 275 275 274 274 274 274 273 273 273
269 269 268 268 268 268 267 267 267 267 267 267 267 267 267 267 267 267 267 267 268 268 268 268 268 268 268 269 269 269 270 270 270 271 271 272 272 272 273 273 273 273 274 274 274 274 274 275 275 275 275 275 275 274 274 274 275 275 275 275 275 275 275 275 276 276 276 276 275 275 275 275 276 276 275 275 275 275 275 275 275 274 274 273 273
270 271 271 271 270 270 270 270 270 270 269 269 269 269 269 269 269 269 269 269 269 269 269 269 269 269 269 269 269 269 269 269 269 270 270 270 270 271 271 272 272 272 273 273 273 273 274 274 274 274 274 274 274 274 274 274 274 274 274 275 275 275 275 275 275 275 275 275 275 274 274 274 274 275 274 274 274 274 274 274 274 274 274 273 273
271 271 272 272 272 272 272 272 272 272 272 272 272 272 271 271 271 271 271 271 271 271 271 271 271 271 270 270 270 270 270 270 270 270 270 270 270 270 270 270 271 271 271 271 272 272 272 273 273 273 273 273 274 274 274 274 274 274 274 274 274 274 274 274 275 275 275 275 275 274 274 273 273 274 274 273 273 273 273 273 273 273 273 273 273
271 272 272 272 273 273 273 273 273 273 273 273 273 273 273 273 273 273 272 272 272 272 272 272 272 272 272 272 271 271 271 271 271 271 271 271 271 271 271 270 270 270 270 271 271 271 271 271 271 271 272 272 272 272 273 273 273 273 274 274 273 273 273 274 274 274 275 275 274 274 273 273 273 273 273 273 273 273 273 273 273 273 273 273 273
271 272 272 272 273 273 273 274 274 274 274 274 274 274 274 274 274 274 274 274 273 273 273 273 273 272 272 272 272 272 272 272 271 271 271 271 271 271 271 271 271 271 271 271 271 271 271 271 271 270 270 271 271 271 271 271 272 272 272 272 272 272 272 273 273 273 273 273 273 273 273 272 272 272 272 272 272 272 272 272 272 272 272 272 272
272 272 272 273 273 273 273 274 274 274 274 275 275 275 275 275 275 275 275 275 275 275 274 274 274 274 274 273 273 273 272 272 272 272 271 271 271 271 271 271 271 271 271 271 271 271 271 271 270 270 270 270 270 270 270 270 270 271 271 271 271 272 272 272 272 272 272 272 272 272 272 271 271 270 270 270 270 270 271 271 270 270 270 270 271
273 273 273 274 274 274 275 275 275 275 276 276 276 276 276 276 276 276 276 276 276 276 275 275 275 275 275 275 274 274 274 273 273 272 272 272 271 271 271 271 271 271 271 271 271 271 270 270 270 270 270 270 270 269 269 269 269 269 269 270 270 270 271 271 271 271 271 271 271 271 271 270 270 270 269 269 269 269 269 269 269 269 269 269 269
275 275 275 276 276 276 276 277 277 277 277 277 277 277 277 277 277 277 277 277 277 277 277 276 276 276 276 275 275 275 275 274 274 273 273 272 272 272 272 271 271 271 271 271 271 270 270 270 270 270 270 269 269 269 269 269 269 268 268 268 268 269 269 269 269 270 270 270 270 270 270 270 270 269 269 269 269 268 268 268 269 269 269 268 268
276 276 277 277 277 277 277 278 278 278 278 278 278 278 278 278 278 278 278 278 278 278 278 278 277 277 277 276 276 276 275 275 274 274 274 273 273 272 272 272 272 272 271 271 271 271 271 270 270 270 270 269 269 269 268 268 268 268 268 268 268 267 268 268 268 268 268 269 269 269 269 269 269 269 268 268 268 268 268 268 268 268 268 268 268
276 277 277 277 277 277 278 278 278 278 278 278 278 278 278 279 279 279 279 279 279 279 279 279 278 278 278 278 277 277 276 276 276 275 275 274 274 274 273 273 272 272 272 272 271 271 271 270 270 270 270 270 269 269 268 268 268 268 267 267 267 267 267 267 267 267 267 267 267 268 268 268 268 268 267 267 267 267 267 267 267 267 267 267 267
277 277 277 277 277 278 278 278 278 279 279 279 279 279 279 279 279 279 279 279 279 279 279 279 279 279 279 278 278 278 278 277 277 277 277 276 276 276 275 275 274 274 273 273 272 272 271 271 271 270 270 270 269 269 269 268 268 267 267 267 266 266 266 266 266 266 266 266 266 266 266 266 266 266 266 266 266 266 266 266 266 266 266 266 266
277 277 277 277 278 278 278 278 278 278 278 279 279 279 279 279 279 279 280 280 280 279 279 279 279 279 279 279 278 278 278 278 278 278 278 278 278 278 277 277 276 276 275 275 274 273 273 272 272 271 271 270 270 269 269 268 268 267 267 267 266 266 266 266 265 265 265 265 265 265 265 265 265 265 265 265 265 265 265 265 265 265 265 265 265
277 277 278 278 278 278 279 279 279 279 279 279 279 279 280 280 280 280 280 280 280 280 279 279 279 279 279 279 279 279 279 279 279 279 279 279 279 279 279 278 278 277 277 276 275 275 274 273 272 272 271 271 270 270 269 269 268 268 267 267 267 266 266 266 265 265 265 265 264 264 264 263 264 264 264 264 264 264 264 264 264 265 265 265 265
279 279 279 279 279 279 279 279 279 280 280 280 280 280 280 280 280 280 280 280 280 280 279 279 279 279 279 279 279 280 280 280 280 280 281 281 280 280 280 280 279 279 278 277 276 276 275 274 273 272 272 271 270 270 269 269 268 268 268 267 267 267 266 266 266 266 265 265 265 264 263 263 263 263 263 263 263 263 263 264 264 264 264 264 264
281 281 281 281 281 281 280 280 281 281 281 281 281 281 281 281 281 281 281 281 280 280 280 279 279 279 279 280 280 280 281 281 281 281 281 281 281 281 280 280 280 279 278 278 277 276 275 275 274 272 272 271 271 270 270 269 268 268 267 267 267 266 266 266 266 266 266 265 265 265 264 263 263 262 262 262 262 262 262 262 263 263 263 263 263
285 284 284 284 284 284 284 284 283 283 283 283 283 283 283 283 283 283 282 282 281 281 281 281 281 281 282 282 282 283 283 283 283 283 283 283 282 282 281 281 280 280 279 278 277 277 276 275 274 273 272 271 270 270 269 269 269 268 267 267 266 266 265 265 265 265 265 265 265 265 265 264 264 263 263 262 262 262 262 262 262 262 262 263 263
286 286 286 286 286 285 285 285 285 284 284 284 284 284 283 283 282 282 282 281 281 282 282 282 283 284 284 285 285 285 286 286 286 285 285 285 284 284 283 282 281 281 280 279 278 277 276 275 274 274 272 271 270 270 269 269 268 268 267 267 266 265 265 265 264 264 264 264 265 265 265 265 264 264 264 263 263 263 262 262 261 261 261 262 262
286 286 286 286 285 285 285 284 284 284 284 283 283 283 282 282 281 281 281 281 281 281 282 283 284 284 285 286 287 287 287 287 287 287 286 286 286 285 284 284 283 282 281 280 279 278 277 276 275 274 273 272 271 270 269 268 268 267 267 267 266 266 265 264 264 264 264 264 264 264 264 264 264 264 264 264 264 264 263 263 263 262 262 261 262
287 287 286 286 286 285 285 284 284 284 283 283 283 282 282 281 281 281 281 281 281 282 283 284 284 285 286 287 287 288 288 288 288 287 287 287 287 286 286 285 284 283 282 281 280 279 278 277 276 275 274 273 272 270 269 269 268 267 266 266 266 266 265 265 264 264 263 263 263 263 263 263 264 264 264 264 264 263 263 263 263 263 263 262 262
288 288 288 287 287 286 286 285 285 284 284 283 283 282 282 281 281 281 281 282 282 283 283 284 285 286 286 287 288 288 288 288 287 287 287 287 287 286 286 285 284 283 283 282 281 280 279 278 277 276 275 274 273 271 270 269 268 267 267 266 266 265 265 265 265 264 264 263 263 263 263 263 263 263 263 263 263 263 263 263 263 263 263 263 262
290 290 290 289 288 288 287 286 286 285 285 284 284 283 283 282 282 282 282 282 283 283 284 285 285 286 286 287 287 287 287 287 286 286 286 286 286 285 285 284 284 283 283 282 281 280 279 279 278 277 276 275 274 273 272 271 270 269 267 266 266 265 265 265 265 265 265 264 264 263 263 263 263 262 263 263 263 263 263 263 263 263 263 263 263
293 293 292 291 290 290 289 288 287 287 286 286 285 285 284 284 284 283 283 284 284 284 285 286 286 286 286 286 286 286 286 286 286 285 285 285 285 284 284 284 283 283 282 281 280 280 279 279 278 277 277 276 276 275 274 273 271 270 269 268 267 266 266 265 265 265 265 265 264 264 263 263 263 262 262 262 262 263 263 263 263 263 263 263 263
298 296 295 294 293 292 292 291 290 290 289 289 288 287 287 286 286 286 285 285 286 286 287 287 287 287 287 287 286 286 286 285 285 285 285 285 284 284 284 283 283 283 282 281 280 280 279 278 278 277 277 277 277 276 275 274 273 272 271 270 269 268 267 266 266 266 266 265 265 265 264 263 263 263 262 262 262 262 262 262 263 263 263 263 262
303 301 300 299 297 296 296 295 295 294 293 293 292 291 290 289 289 288 288 288 288 288 288 288 288 288 288 287 286 286 286 285 285 285 285 285 284 284 284 284 283 282 282 281 280 280 279 278 278 278 277 277 276 276 276 275 274 273 272 271 270 270 269 268 267 267 267 266 266 265 264 264 263 263 262 262 262 262 262 262 263 263 263 263 262
307 306 304 303 302 301 300 300 300 300 299 297 296 295 294 292 292 291 290 290 290 290 290 290 290 289 288 288 287 286 286 285 285 285 285 285 285 284 284 284 283 283 282 281 280 280 279 279 278 278 277 276 276 276 276 275 275 274 274 273 272 271 270 270 269 268 268 267 267 266 265 265 264 263 262 262 262 262 262 262 262 263 263 263 262
311 310 308 307 306 306 305 305 305 305 304 302 301 299 298 296 295 294 293 293 292 292 292 291 291 290 289 288 288 287 287 286 285 285 285 285 284 284 284 284 283 283 282 281 281 280 279 279 278 277 277 276 276 275 275 275 275 274 274 274 273 272 272 271 270 270 269 269 268 267 267 266 265 264 263 263 262 262 262 262 262 262 262 262 262
315 314 312 312 311 310 310 310 309 309 308 307 305 303 301 300 298 297 296 295 294 294 293 292 292 291 290 290 289 288 287 287 286 286 286 285 285 284 284 283 283 282 282 281 281 280 279 279 278 278 277 277 276 276 275 275 274 274 274 273 273 273 272 272 271 270 270 269 269 268 268 267 266 265 264 263 263 262 262 262 261 261 261 262 262
319 318 317 316 315 315 314 314 314 313 311 310 309 307 305 303 301 300 299 298 297 296 294 293 292 292 291 290 290 289 288 287 287 287 287 287 286 286 285 284 283 283 282 282 282 281 280 279 279 278 277 277 276 276 275 275 274 274 274 273 273 273 272 272 271 271 270 270 269 269 269 268 267 266 266 265 264 263 262 262 261 261 261 261 261
322 321 321 320 319 319 318 318 317 316 315 313 312 310 309 307 305 303 301 300 298 297 296 294 293 292 291 290 290 289 288 287 286 286 286 287 286 286 286 285 284 284 284 283 282 281 281 280 280 279 278 277 277 276 275 275 274 274 273 273 273 272 272 272 271 271 270 270 270 269 269 268 268 267 267 266 265 264 263 263 262 261 261 261 261
325 324 324 323 323 322 321 321 320 319 318 316 315 313 311 310 308 306 304 302 300 299 297 296 295 294 292 291 290 289 288 287 287 286 286 286 286 286 286 285 285 285 285 284 283 283 282 281 281 280 279 279 278 277 276 275 274 273 273 273 272 272 271 271 271 270 270 270 269 269 269 269 268 268 267 267 266 266 265 264 263 262 261 261 261
327 327 326 326 326 325 324 323 323 321 320 319 317 315 313 312 310 309 307 305 303 301 300 298 297 295 294 293 292 291 289 289 288 287 287 286 286 286 286 285 285 285 285 285 284 283 282 282 281 281 280 280 279 278 277 276 275 274 273 272 272 271 271 270 270 269 269 269 269 268 268 268 268 268 268 267 267 266 266 265 264 263 262 261 261
328 328 328 328 328 327 326 325 324 323 322 321 319 317 315 314 312 310 308 307 306 304 303 301 300 298 297 296 295 293 291 290 289 288 288 288 287 287 286 286 286 286 285 285 285 284 283 283 282 281 281 280 279 279 278 277 276 274 273 272 271 271 270 270 269 268 268 267 267 267 267 267 267 267 267 267 267 267 266 266 266 265 263 262 261
329 329 329 329 329 328 327 327 326 325 324 322 320 319 317 315 313 311 309 308 307 306 304 303 302 301 300 299 297 296 294 293 292 291 290 289 289 288 287 287 286 286 285 285 284 284 284 283 283 282 281 280 280 279 278 277 276 275 274 273 272 271 270 269 269 268 267 266 266 266 266 266 266 266 266 266 266 266 265 266 266 265 265 264 262
330 330 330 330 329 329 328 328 327 326 325 323 322 320 318 316 314 312 311 309 308 306 305 304 303 302 301 301 300 298 297 296 294 294 293 292 291 291 290 289 288 287 286 285 284 283 283 283 282 282 282 281 280 280 279 278 277 276 275 274 273 272 270 270 269 268 267 266 265 265 264 264 264 264 264 264 264 264 264 264 264 265 265 264 263
330 330 330 330 330 329 329 328 328 327 326 324 323 321 319 317 315 313 312 310 309 307 306 305 304 303 303 302 301 300 299 298 297 296 295 294 293 293 292 291 290 289 288 287 286 285 283 282 282 281 281 281 280 280 279 279 278 277 276 275 273 272 271 270 269 268 267 266 266 265 264 264 263 263 263 263 263 263 263 263 263 263 263 263 263
330 331 331 331 330 330 330 329 328 328 327 325 324 322 320 318 316 314 313 311 310 309 307 306 305 304 304 303 303 303 302 301 299 299 297 296 295 294 293 292 291 290 289 289 288 286 285 284 282 281 281 280 280 279 279 278 278 277 277 276 274 273 272 271 270 268 267 267 266 265 264 264 264 263 263 262 262 262 262 262 262 262 262 261 262
330 331 331 331 331 331 330 330 329 329 328 326 325 323 321 319 317 315 314 313 311 310 309 307 306 306 305 305 305 305 304 303 302 301 300 299 298 296 295 293 292 291 290 289 288 287 286 285 284 283 282 281 280 279 279 278 278 277 277 276 275 274 273 272 271 270 269 267 266 265 264 264 263 263 263 262 262 261 261 261 261 261 260 260 260
330 331 331 331 331 331 331 330 330 329 328 327 325 323 321 320 318 317 315 314 313 312 310 309 308 307 306 306 306 306 306 305 304 304 303 302 300 299 297 296 294 292 291 290 288 287 286 286 285 284 283 282 281 280 279 278 278 277 276 276 275 274 274 273 272 271 270 269 268 267 265 264 264 263 262 262 262 261 261 260 260 259 259 259 258
330 330 331 331 331 331 331 331 331 330 329 328 326 324 322 320 319 318 317 315 314 313 312 310 309 308 308 307 307 307 306 306 305 305 304 303 302 301 300 298 296 294 293 291 290 288 287 286 285 284 284 283 282 281 280 279 279 278 277 276 275 274 273 273 272 272 271 270 269 268 267 266 265 264 263 262 262 261 261 260 259 259 258 258 257
330 330 331 331 332 332 332 331 331 330 329 328 326 324 323 321 320 319 318 316 315 314 313 312 311 310 309 309 308 308 307 306 305 305 304 304 303 302 301 299 298 296 295 293 291 290 288 287 285 285 284 283 282 281 281 280 279 278 277 276 275 274 273 273 272 271 271 270 270 269 268 267 266 265 264 263 262 261 261 260 259 258 257 257 256
329 330 331 331 332 332 332 332 331 331 329 328 326 325 323 322 321 320 319 317 316 315 314 314 313 312 311 310 309 308 307 307 306 305 304 304 303 302 301 300 298 297 296 294 293 291 290 288 287 286 284 284 283 282 281 280 279 278 278 277 276 275 274 273 272 271 270 270 269 269 268 267 266 265 264 263 262 261 261 260 259 258 257 256 255
329 330 331 331 332 332 332 332 331 331 330 328 327 325 324 322 321 320 320 318 317 316 315 314 314 313 312 311 310 309 308 307 306 306 305 304 303 302 301 300 299 298 296 295 293 292 290 289 288 287 286 284 283 282 281 280 279 278 277 277 276 275 274 273 272 271 270 270 269 268 268 267 266 265 264 263 262 261 261 260 259 257 256 255 255
329 330 331 331 332 332 332 332 332 331 330 328 327 325 324 323 322 321 320 319 318 317 316 315 314 314 313 312 311 310 309 308 307 307 306 306 305 303 302 301 299 298 297 295 294 292 291 289 288 288 287 285 284 282 281 280 279 278 277 276 275 275 274 273 272 271 270 269 269 268 267 266 265 264 263 262 262 261 260 259 258 257 256 255 254
329 330 331 331 332 332 332 332 332 331 330 329 327 326 325 324 323 322 321 320 319 318 317 316 315 314 314 313 312 311 310 309 308 308 308 307 306 304 303 301 300 299 298 296 295 293 291 290 289 288 287 286 285 283 282 280 279 278 277 276 275 274 273 272 272 271 269 269 268 267 267 266 265 264 263 262 261 260 259 258 258 257 255 254 254
329 330 331 332 332 332 332 332 332 331 330 329 327 326 325 324 323 322 321 320 320 319 318 317 316 315 314 313 312 311 311 310 309 309 309 308 307 305 304 302 301 299 298 297 296 294 292 290 289 288 287 286 285 284 282 281 280 279 278 276 275 274 273 272 271 270 269 268 268 267 266 265 264 263 262 261 260 259 259 258 257 256 255 254 253
329 330 331 332 332 332 332 332 331 331 330 329 327 326 325 324 323 322 322 321 320 320 319 318 317 316 315 314 313 312 311 310 310 309 309 308 308 306 304 302 301 299 298 297 296 294 292 290 289 288 287 286 285 284 282 281 280 279 278 277 275 274 273 272 271 269 268 268 267 266 265 264 263 262 262 260 259 258 258 257 256 255 254 253 252
329 330 331 332 332 332 332 332 331 331 330 328 327 326 325 324 324 323 322 322 321 321 320 318 317 317 316 315 314 313 312 311 310 309 309 309 308 306 304 303 301 299 298 298 297 295 292 291 290 289 288 287 285 284 283 281 280 279 278 277 276 275 274 272 271 269 268 267 266 265 264 263 262 262 261 260 258 257 257 256 255 254 253 252 251
329 330 331 332 332 333 332 332 331 331 329 328 327 326 325 325 324 323 323 323 322 321 320 319 318 317 316 315 314 313 312 311 310 310 310 309 308 307 304 302 301 299 299 298 297 295 292 291 290 289 288 287 285 284 283 281 280 279 278 277 276 275 274 273 271 269 267 266 265 264 264 262 261 261 260 259 258 256 256 255 254 253 252 251 250
329 330 331 332 332 332 332 332 331 330 329 328 327 327 326 325 324 324 324 323 323 322 321 319 318 318 317 316 314 313 312 312 311 310 310 310 309 307 305 302 300 299 299 298 296 295 293 291 290 290 288 287 285 284 283 282 280 279 278 277 276 275 274 273 271 269 267 266 264 263 263 261 260 259 259 258 257 255 255 254 254 253 251 250 249
Height
10567 10566 10564 10562 10560 10558 10556 10554 10552 10550 10549 10547 10545 10543 10541 10539 10536 10534 10531 10529 10527 10525 10523 10521 10519 10517 10514 10512 10510 10508 10505 10504 10501 10500 10500 10499 10498 10498 10497 10496 10496 10496 10495 10494 10494 10493 10493 10493 10493 10493 10492 10492 10491 10489 10489 10487 10485 10486 10487 10486 10483 10477 10475 10476 10480 10496 10508 10503 10500 10510 10510 10505 10510 10512 10508 10510 10515 10514 10512 10513 10515 10515 10516 10517 10517
10550 10549 10548 10546 10544 10542 10540 10538 10536 10533 10532 10530 10528 10525 10523 10522 10519 10517 10514 10512 10510 10508 10505 10503 10501 10499 10497 10495 10492 10490 10487 10485 10482 10481 10480 10479 10477 10476 10475 10474 10473 10473 10472 10471 10471 10470 10470 10470 10468 10468 10469 10469 10469 10467 10466 10464 10461 10463 10464 10462 10461 10459 10456 10456 10459 10468 10484 10489 10483 10484 10488 10483 10483 10489 10485 10483 10491 10495 10492 10493 10495 10496 10497 10498 10500
10532 10530 10529 10528 10526 10525 10523 10521 10519 10517 10514 10512 10510 10508 10505 10503 10501 10499 10496 10494 10491 10489 10487 10485 10483 10480 10478 10476 10474 10471 10469 10466 10464 10462 10461 10459 10458 10456 10455 10454 10452 10452 10450 10450 10449 10448 10447 10447 10446 10445 10445 10444 10444 10445 10445 10443 10439 10439 10441 10439 10439 10440 10437 10434 10437 10443 10455 10466 10466 10461 10465 10466 10463 10466 10466 10461 10464 10471 10472 10472 10473 10473 10474 10477 10480
10514 10512 10510 10509 10507 10506 10504 10502 10500 10498 10496 10494 10492 10489 10487 10485 10482 10480 10477 10474 10472 10469 10466 10464 10462 10460 10458 10456 10453 10451 10448 10446 10444 10442 10441 10440 10439 10437 10436 10434 10432 10431 10430 10429 10428 10427 10426 10426 10425 10423 10421 10420 10420 10420 10420 10418 10417 10416 10417 10419 10418 10417 10416 10411 10412 10418 10427 10439 10447 10443 10443 10447 10446 10443 10443 10442 10442 10446 10451 10453 10453 10451 10451 10454 10459
10498 10495 10493 10490 10488 10486 10484 10483 10481 10479 10477 10475 10472 10470 10467 10464 10462 10459 10456 10453 10450 10448 10445 10442 10440 10437 10435 10433 10430 10428 10425 10423 10422 10421 10419 10418 10417 10417 10416 10414 10413 10411 10410 10409 10408 10407 10406 10404 10403 10401 10399 10398 10397 10397 10396 10393 10391 10391 10393 10398 10398 10393 10392 10391 10389 10393 10399 10409 10421 10425 10422 10425 10428 10424 10419 10418 10420 10424 10428 10430 10431 10431 10433 10435 10437
10482 10479 10476 10474 10471 10468 10466 10463 10461 10459 10456 10454 10451 10449 10446 10443 10440 10437 10434 10431 10428 10425 10422 10419 10416 10414 10411 10409 10406 10403 10401 10398 10396 10396 10395 10393 10392 10392 10391 10391 10390 10389 10388 10387 10386 10385 10385 10383 10383 10381 10378 10377 10376 10375 10374 10371 10367 10368 10372 10374 10373 10369 10370 10372 10370 10370 10374 10381 10391 10400 10401 10401 10404 10405 10400 10394 10396 10403 10406 10405 10407 10411 10414 10417 10419
10466 10463 10460 10457 10454 10451 10448 10445 10442 10439 10437 10433 10431 10427 10424 10421 10418 10414 10411 10408 10405 10402 10399 10396 10393 10390 10388 10385 10382 10379 10376 10373 10371 10370 10369 10368 10367 10366 10365 10364 10363 10363 10362 10362 10361 10360 10359 10358 10357 10357 10356 10355 10355 10355 10353 10349 10346 10349 10351 10348 10344 10345 10348 10351 10351 10349 10351 10356 10363 10371 10377 10379 10380 10382 10381 10375 10373 10380 10385 10383 10385 10391 10393 10393 10398
10450 10446 10443 10440 10437 10434 10430 10427 10424 10421 10418 10414 10411 10407 10403 10400 10396 10392 10389 10385 10381 10378 10375 10372 10369 10365 10362 10359 10356 10353 10350 10347 10345 10344 10344 10343 10342 10341 10341 10339 10338 10337 10336 10335 10335 10333 10332 10330 10329 10329 10330 10330 10331 10331 10329 10327 10326 10328 10328 10323 10319 10322 10325 10326 10327 10327 10327 10331 10338 10344 10349 10354 10356 10358 10359 10357 10354 10357 10361 10360 10364 10373 10375 10370 10372
10433 10430 10426 10423 10420 10417 10414 10410 10407 10403 10399 10395 10391 10387 10383 10379 10375 10371 10366 10362 10358 10354 10351 10347 10344 10341 10337 10333 10329 10325 10322 10319 10317 10316 10316 10316 10315 10315 10315 10314 10312 10311 10310 10310 10309 10306 10304 10303 10302 10302 10303 10303 10303 10303 10302 10301 10302 10304 10305 10302 10299 10300 10302 10301 10300 10301 10302 10305 10312 10318 10322 10326 10331 10332 10333 10336 10335 10335 10338 10338 10340 10349 10356 10354 10353
10418 10414 10411 10407 10404 10400 10397 10393 10388 10384 10379 10375 10371 10367 10362 10357 10353 10348 10343 10339 10335 10330 10326 10322 10318 10315 10313 10309 10304 10299 10295 10291 10289 10288 10288 10287 10288 10289 10289 10288 10286 10284 10284 10284 10283 10280 10276 10274 10275 10275 10275 10276 10275 10275 10275 10274 10275 10277 10280 10280 10278 10277 10278 10278 10276 10275 10276 10279 10284 10290 10295 10299 10305 10305 10305 10309 10312 10311 10314 10317 10318 10322 10328 10332 10337
10403 10399 10395 10391 10387 10383 10379 10374 10369 10365 10360 10356 10351 10346 10341 10336 10331 10326 10321 10316 10311 10306 10302 10298 10293 10289 10287 10283 10279 10273 10268 10264 10261 10260 10260 10259 10260 10262 10263 10264 10261 10258 10258 10258 10256 10253 10250 10248 10248 10247 10245 10245 10246 10247 10247 10246 10247 10249 10251 10253 10254 10254 10254 10254 10254 10252 10250 10253 10258 10264 10268 10272 10278 10278 10277 10281 10286 10286 10288 10294 10297 10299 10301 10304 10312
10388 10383 10378 10374 10370 10365 10360 10356 10351 10347 10342 10337 10331 10325 10320 10315 10310 10306 10300 10295 10290 10284 10278 10273 10269 10264 10260 10257 10253 10247 10241 10237 10234 10232 10232 10232 10232 10233 10236 10237 10235 10233 10232 10231 10229 10226 10224 10223 10222 10219 10216 10215 10216 10217 10217 10217 10219 10221 10223 10225 10227 10228 10228 10228 10229 10229 10227 10227 10231 10238 10243 10245 10249 10252 10252 10252 10256 10259 10261 10266 10271 10273 10277 10281 10287
10371 10366 10362 10357 10352 10348 10343 10339 10334 10329 10323 10317 10311 10306 10300 10295 10290 10286 10281 10274 10268 10262 10256 10250 10244 10239 10234 10231 10227 10222 10215 10210 10208 10206 10205 10205 10204 10205 10207 10208 10207 10207 10206 10205 10202 10199 10197 10197 10197 10193 10189 10187 10187 10187 10187 10188 10191 10192 10194 10197 10199 10200 10200 10200 10200 10201 10202 10203 10206 10213 10218 10218 10218 10224 10227 10225 10225 10230 10234 10237 10240 10244 10249 10257 10264
10356 10351 10346 10342 10337 10333 10328 10323 10317 10311 10305 10299 10294 10288 10282 10277 10272 10267 10261 10255 10248 10242 10235 10228 10222 10215 10210 10206 10203 10198 10192 10186 10183 10181 10179 10178 10178 10178 10180 10180 10179 10179 10179 10177 10175 10171 10170 10170 10170 10167 10164 10162 10160 10158 10158 10159 10162 10163 10166 10169 10171 10172 10173 10172 10172 10171 10174 10177 10182 10188 10193 10193 10190 10193 10198 10197 10195 10200 10206 10210 10212 10216 10220 10229 10238
10342 10337 10332 10328 10323 10319 10314 10307 10301 10295 10289 10283 10277 10271 10265 10260 10255 10249 10242 10235 10227 10221 10214 10207 10201 10194 10187 10183 10180 10176 10170 10164 10160 10158 10155 10154 10154 10154 10154 10154 10153 10153 10152 10150 10147 10144 10143 10142 10142 10141 10140 10137 10134 10131 10130 10131 10133 10136 10140 10142 10144 10146 10145 10144 10143 10142 10145 10149 10153 10159 10165 10167 10165 10164 10168 10171 10169 10171 10178 10183 10186 10189 10193 10200 10209
10329 10324 10319 10314 10309 10304 10298 10292 10285 10279 10273 10267 10261 10254 10248 10243 10237 10231 10224 10216 10207 10200 10193 10186 10179 10173 10167 10162 10158 10155 10150 10142 10138 10136 10133 10130 10130 10130 10130 10129 10128 10127 10126 10124 10121 10118 10116 10114 10113 10114 10113 10112 10110 10106 10104 10104 10105 10110 10115 10117 10118 10120 10119 10118 10116 10116 10119 10121 10123 10127 10132 10137 10139 10139 10142 10146 10146 10146 10149 10153 10160 10164 10166 10171 10179
10316 10310 10305 10300 10294 10289 10283 10277 10270 10264 10258 10251 10245 10238 10232 10225 10219 10212 10205 10197 10188 10178 10171 10164 10156 10150 10145 10141 10137 10135 10130 10123 10117 10113 10110 10107 10106 10107 10106 10105 10104 10103 10101 10098 10095 10092 10089 10086 10085 10086 10087 10086 10085 10082 10079 10077 10080 10086 10091 10092 10093 10094 10093 10093 10092 10092 10093 10093 10094 10097 10101 10105 10110 10112 10115 10118 10120 10122 10123 10127 10135 10139 10136 10141 10152
10302 10295 10289 10284 10278 10273 10267 10261 10255 10248 10241 10235 10228 10221 10214 10207 10200 10192 10184 10177 10168 10158 10149 10143 10135 10127 10122 10118 10115 10112 10109 10102 10095 10090 10086 10083 10081 10081 10082 10081 10080 10079 10076 10073 10070 10066 10063 10060 10057 10058 10060 10061 10059 10057 10055 10053 10055 10062 10066 10067 10068 10070 10070 10070 10070 10069 10068 10067 10068 10071 10073 10076 10080 10083 10087 10090 10092 10095 10097 10102 10112 10115 10110 10113 10125
10288 10281 10275 10269 10263 10258 10251 10245 10238 10232 10226 10219 10212 10204 10197 10190 10181 10172 10164 10156 10148 10139 10130 10122 10115 10107 10100 10096 10093 10089 10086 10081 10073 10067 10063 10059 10056 10056 10057 10057 10057 10055 10051 10048 10046 10042 10038 10035 10033 10031 10032 10034 10034 10033 10032 10031 10032 10037 10040 10040 10043 10046 10047 10047 10046 10045 10045 10045 10045 10046 10048 10050 10053 10056 10060 10063 10064 10068 10070 10075 10085 10090 10089 10091 10098
10275 10268 10262 10256 10250 10243 10237 10230 10223 10217 10211 10204 10196 10187 10180 10173 10163 10154 10145 10136 10128 10120 10112 10104 10097 10089 10081 10076 10072 10068 10063 10059 10052 10045 10040 10036 10033 10032 10032 10033 10032 10031 10029 10025 10022 10019 10014 10010 10009 10008 10007 10008 10009 10009 10009 10008 10009 10012 10015 10016 10018 10022 10024 10024 10022 10022 10023 10024 10024 10023 10024 10026 10028 10030 10034 10037 10038 10041 10044 10047 10054 10061 10066 10071 10077
10263 10256 10250 10243 10236 10229 10222 10216 10209 10203 10196 10188 10180 10170 10162 10154 10145 10136 10127 10119 10110 10102 10094 10086 10080 10072 10064 10058 10053 10047 10042 10037 10031 10024 10019 10015 10011 10009 10009 10009 10008 10008 10008 10004 9999 9996 9992 9988 9986 9985 9983 9984 9984 9985 9986 9986 9986 9988 9992 9993 9995 9999 10000 10000 10000 9999 10000 10002 10003 10002 10002 10004 10005 10006 10008 10011 10013 10015 10019 10023 10028 10033 10039 10047 10054
10252 10245 10237 10230 10223 10216 10208 10201 10194 10187 10180 10172 10163 10154 10144 10135 10126 10117 10109 10101 10093 10084 10077 10070 10063 10056 10048 10040 10034 10028 10022 10016 10011 10006 10000 9996 9992 9989 9988 9987 9986 9986 9987 9984 9978 9974 9971 9969 9966 9963 9960 9960 9960 9963 9965 9965 9963 9965 9969 9971 9973 9976 9977 9978 9978 9978 9978 9979 9981 9982 9982 9983 9984 9985 9986 9987 9989 9991 9995 10000 10004 10007 10013 10021 10029
10240 10232 10224 10217 10209 10202 10194 10187 10179 10171 10164 10155 10146 10136 10126 10116 10106 10097 10090 10083 10076 10067 10059 10053 10047 10040 10033 10024 10016 10009 10004 9997 9992 9987 9983 9978 9974 9970 9968 9967 9966 9966 9967 9965 9960 9955 9951 9949 9947 9943 9939 9938 9940 9943 9944 9943 9942 9944 9946 9948 9951 9954 9955 9956 9957 9957 9957 9958 9959 9960 9961 9962 9964 9966 9966 9966 9967 9969 9972 9976 9980 9984 9989 9996 10004
10227 10219 10211 10204 10196 10188 10179 10171 10163 10155 10146 10138 10128 10118 10108 10098 10088 10078 10071 10064 10058 10051 10043 10036 10031 10024 10017 10009 9999 9991 9985 9980 9973 9968 9965 9962 9957 9953 9950 9948 9947 9947 9947 9946 9942 9937 9933 9931 9928 9924 9921 9921 9924 9924 9922 9921 9922 9923 9924 9926 9929 9932 9934 9935 9936 9937 9937 9938 9939 9940 9941 9941 9943 9945 9947 9948 9948 9949 9951 9954 9957 9961 9966 9973 9981
10214 10205 10198 10190 10182 10174 10164 10155 10146 10138 10129 10120 10111 10101 10091 10081 10070 10060 10052 10046 10040 10033 10025 10018 10013 10007 10000 9992 9983 9975 9968 9962 9956 9950 9947 9944 9941 9937 9934 9931 9929 9928 9928 9927 9923 9920 9917 9913 9910 9908 9907 9907 9906 9905 9903 9902 9903 9903 9904 9906 9908 9911 9913 9915 9916 9916 9917 9918 9919 9920 9922 9922 9923 9925 9927 9929 9930 9930 9931 9934 9936 9940 9944 9951 9959
10200 10191 10183 10175 10167 10158 10149 10139 10130 10121 10111 10102 10093 10083 10073 10064 10054 10043 10035 10029 10022 10015 10008 10001 9994 9989 9982 9975 9967 9960 9952 9945 9939 9934 9931 9928 9924 9920 9918 9915 9913 9911 9910 9908 9905 9902 9899 9895 9894 9894 9893 9890 9889 9887 9886 9885 9885 9885 9885 9887 9888 9891 9893 9895 9896 9897 9897 9898 9899 9900 9902 9904 9905 9906 9908 9910 9912 9912 9913 9916 9918 9920 9924 9929 9937
10186 10177 10169 10161 10152 10143 10134 10124 10114 10104 10094 10084 10075 10064 10054 10046 10036 10026 10019 10012 10005 9998 9991 9984 9977 9972 9965 9957 9950 9944 9937 9930 9924 9919 9916 9913 9908 9904 9902 9899 9896 9894 9893 9890 9888 9886 9882 9880 9879 9878 9876 9874 9873 9872 9871 9870 9868 9868 9868 9869 9870 9872 9874 9876 9877 9878 9878 9879 9880 9881 9883 9885 9887 9889 9890 9892 9893 9894 9896 9899 9901 9903 9905 9909 9917
10172 10163 10155 10146 10137 10128 10118 10109 10099 10089 10079 10068 10058 10047 10037 10027 10018 10009 10001 9995 9989 9982 9975 9967 9961 9956 9949 9942 9936 9929 9922 9915 9909 9905 9902 9899 9895 9891 9887 9883 9881 9878 9876 9874 9873 9870 9867 9865 9863 9861 9860 9859 9859 9857 9856 9855 9854 9853 9852 9852 9853 9854 9856 9858 9859 9860 9860 9861 9862 9863 9864 9866 9868 9871 9872 9874 9875 9877 9879 9882 9885 9887 9888 9890 9896
10158 10149 10140 10131 10122 10112 10103 10093 10084 10074 10064 10054 10042 10031 10019 10010 10002 9992 9983 9976 9971 9966 9960 9952 9946 9940 9934 9927 9921 9915 9908 9899 9893 9890 9887 9884 9881 9878 9874 9869 9866 9862 9859 9859 9858 9855 9851 9849 9847 9845 9845 9844 9843 9842 9842 9840 9839 9838 9838 9837 9837 9838 9839 9841 9842 9843 9843 9844 9845 9846 9847 9848 9850 9852 9854 9857 9858 9859 9862 9865 9869 9872 9873 9874 9878
10144 10134 10125 10116 10107 10097 10088 10078 10069 10059 10049 10039 10029 10017 10004 9992 9983 9976 9968 9959 9952 9947 9943 9938 9932 9927 9922 9914 9907 9901 9895 9888 9881 9875 9872 9869 9865 9862 9859 9856 9851 9847 9845 9845 9843 9838 9835 9834 9831 9830 9830 9829 9828 9828 9828 9826 9825 9824 9823 9823 9823 9824 9824 9825 9825 9826 9827 9827 9829 9830 9830 9831 9832 9834 9836 9839 9841 9842 9844 9848 9852 9855 9857 9859 9862
10130 10120 10111 10101 10092 10082 10073 10064 10054 10044 10034 10024 10014 10004 9992 9979 9966 9957 9950 9943 9936 9930 9926 9922 9918 9913 9910 9904 9896 9887 9881 9876 9871 9865 9861 9857 9852 9847 9844 9840 9836 9832 9831 9831 9828 9823 9821 9819 9816 9814 9814 9814 9813 9814 9813 9812 9811 9810 9809 9809 9809 9810 9810 9811 9811 9811 9811 9812 9813 9814 9815 9815 9816 9817 9819 9822 9824 9825 9827 9831 9835 9839 9842 9844 9846
10116 10106 10097 10087 10077 10067 10058 10049 10040 10030 10020 10009 9999 9989 9980 9969 9955 9942 9931 9923 9917 9912 9909 9906 9902 9897 9894 9891 9886 9877 9868 9863 9859 9855 9851 9847 9842 9837 9831 9826 9822 9819 9818 9816 9813 9809 9807 9804 9802 9800 9799 9798 9798 9799 9799 9798 9797 9797 9796 9796 9795 9796 9797 9798 9798 9797 9797 9798 9798 9799 9799 9800 9801 9802 9803 9805 9807 9809 9811 9813 9817 9822 9826 9829 9831
10102 10092 10083 10073 10063 10053 10044 10035 10026 10016 10005 9995 9985 9974 9965 9956 9946 9934 9920 9908 9898 9892 9888 9887 9886 9883 9878 9875 9871 9865 9857 9850 9846 9842 9839 9835 9831 9827 9821 9813 9809 9808 9806 9802 9798 9795 9793 9790 9789 9787 9785 9783 9783 9783 9783 9784 9784 9783 9783 9783 9782 9782 9783 9785 9785 9785 9784 9784 9785 9785 9786 9786 9787 9787 9788 9789 9792 9793 9794 9797 9800 9805 9810 9814 9816
10087 10078 10068 10059 10049 10039 10030 10021 10012 10001 9991 9980 9971 9961 9951 9941 9933 9924 9913 9901 9889 9878 9869 9866 9865 9865 9863 9860 9856 9849 9843 9838 9833 9830 9827 9823 9819 9816 9811 9804 9798 9795 9794 9791 9786 9782 9778 9777 9776 9774 9772 9770 9769 9769 9769 9769 9769 9769 9769 9769 9769 9769 9770 9771 9772 9772 9772 9772 9772 9773 9773 9773 9774 9774 9774 9775 9777 9779 9780 9781 9785 9789 9794 9798 9800
10074 10064 10055 10046 10036 10026 10017 10007 9998 9988 9977 9967 9957 9947 9937 9928 9919 9910 9902 9893 9883 9872 9861 9852 9847 9845 9845 9845 9841 9835 9828 9823 9819 9817 9814 9811 9806 9803 9799 9794 9788 9784 9781 9779 9776 9771 9766 9764 9762 9761 9760 9758 9756 9755 9755 9755 9755 9756 9756 9756 9756 9756 9757 9758 9758 9759 9759 9760 9760 9761 9761 9761 9762 9762 9762 9763 9764 9766 9767 9768 9771 9774 9778 9782 9785
10061 10051 10042 10032 10022 10013 10003 9994 9984 9975 9964 9954 9944 9934 9924 9915 9906 9898 9889 9881 9873 9865 9855 9846 9837 9832 9828 9827 9826 9821 9815 9809 9805 9803 9800 9797 9793 9790 9786 9781 9777 9773 9768 9766 9765 9761 9757 9754 9751 9749 9747 9745 9743 9742 9741 9741 9741 9742 9742 9743 9743 9743 9744 9745 9745 9745 9746 9747 9748 9749 9748 9749 9750 9750 9750 9751 9753 9754 9754 9756 9759 9762 9764 9767 9770
10048 10039 10029 10020 10010 10000 9990 9981 9971 9962 9952 9941 9932 9922 9912 9903 9894 9886 9877 9869 9861 9853 9845 9837 9830 9823 9817 9812 9810 9806 9801 9796 9793 9790 9787 9785 9782 9778 9774 9769 9765 9761 9757 9754 9752 9749 9745 9743 9741 9739 9736 9734 9732 9730 9728 9727 9727 9728 9729 9729 9730 9730 9731 9732 9732 9732 9733 9734 9736 9736 9736 9737 9738 9739 9739 9740 9741 9742 9743 9744 9747 9750 9753 9754 9756
10035 10026 10016 10007 9997 9988 9978 9968 9958 9948 9938 9928 9919 9909 9900 9891 9882 9874 9866 9858 9850 9842 9835 9826 9820 9814 9808 9801 9796 9792 9786 9782 9779 9776 9773 9771 9769 9767 9763 9759 9754 9750 9746 9743 9739 9736 9732 9730 9729 9728 9726 9724 9721 9719 9717 9716 9715 9715 9715 9716 9717 9718 9719 9719 9719 9719 9720 9721 9723 9724 9725 9725 9726 9727 9727 9728 9729 9731 9732 9733 9735 9738 9741 9743 9744
10023 10013 10004 9995 9985 9975 9965 9956 9946 9935 9925 9915 9906 9896 9887 9878 9870 9862 9854 9846 9838 9831 9823 9816 9809 9803 9798 9792 9787 9781 9774 9768 9765 9762 9759 9756 9755 9753 9751 9748 9744 9739 9736 9733 9729 9725 9720 9717 9716 9716 9715 9713 9710 9708 9707 9705 9704 9704 9703 9703 9704 9705 9706 9706 9706 9706 9707 9709 9710 9712 9713 9714 9714 9715 9716 9717 9718 9719 9720 9722 9725 9727 9729 9731 9733
10010 10001 9992 9982 9973 9963 9953 9943 9933 9923 9913 9903 9893 9884 9875 9866 9858 9850 9843 9835 9828 9820 9812 9805 9798 9792 9786 9781 9777 9772 9765 9758 9753 9749 9746 9743 9740 9738 9737 9735 9732 9729 9725 9722 9719 9715 9710 9706 9704 9703 9702 9701 9699 9697 9696 9694 9693 9692 9693 9692 9692 9693 9694 9695 9694 9693 9695 9697 9698 9699 9701 9702 9702 9703 9704 9706 9706 9707 9709 9711 9714 9716 9718 9720 9721
9998 9989 9979 9970 9960 9951 9940 9931 9921 9911 9901 9891 9881 9872 9863 9855 9846 9839 9831 9824 9817 9810 9802 9795 9788 9782 9776 9771 9766 9762 9756 9750 9743 9738 9734 9731 9728 9725 9723 9721 9719 9717 9714 9711 9708 9705 9701 9697 9694 9693 9691 9690 9688 9686 9684 9684 9682 9681 9681 9682 9682 9682 9683 9683 9683 9682 9683 9685 9686 9687 9688 9690 9691 9692 9693 9695 9696 9696 9697 9700 9703 9705 9707 9709 9711
9986 9976 9967 9957 9948 9938 9928 9918 9908 9898 9889 9879 9869 9860 9851 9843 9835 9827 9820 9813 9806 9799 9792 9784 9777 9771 9765 9760 9756 9751 9746 9741 9736 9730 9725 9720 9717 9713 9711 9709 9707 9705 9702 9699 9696 9693 9690 9687 9684 9683 9681 9680 9678 9675 9674 9673 9672 9671 9670 9670 9671 9671 9672 9673 9673 9673 9673 9674 9675 9676 9677 9679 9679 9680 9682 9684 9685 9686 9687 9689 9692 9695 9697 9698 9700
9974 9965 9955 9945 9935 9926 9917 9907 9897 9887 9877 9867 9857 9848 9840 9832 9823 9816 9809 9801 9794 9787 9781 9774 9767 9760 9754 9749 9744 9740 9735 9731 9727 9722 9717 9712 9707 9703 9700 9697 9695 9693 9691 9688 9685 9682 9679 9675 9673 9672 9672 9670 9668 9666 9664 9662 9661 9661 9660 9660 9660 9661 9661 9662 9663 9663 9663 9664 9665 9665 9667 9668 9669 9670 9671 9673 9675 9676 9676 9678 9681 9684 9686 9688 9690
9963 9953 9944 9934 9925 9915 9905 9896 9887 9877 9867 9857 9846 9836 9828 9821 9813 9805 9798 9791 9783 9777 9770 9764 9758 9751 9744 9738 9733 9728 9724 9720 9716 9712 9708 9704 9699 9694 9690 9687 9684 9682 9680 9678 9675 9672 9669 9665 9662 9661 9661 9661 9659 9657 9655 9653 9652 9651 9650 9650 9650 9651 9651 9652 9653 9654 9654 9654 9655 9656 9657 9658 9659 9660 9661 9663 9664 9666 9667 9668 9671 9674 9676 9678 9680
9952 9943 9933 9923 9913 9903 9893 9884 9875 9865 9856 9846 9836 9826 9817 9809 9802 9795 9788 9781 9774 9767 9760 9754 9747 9741 9735 9729 9723 9718 9713 9708 9704 9701 9698 9694 9689 9685 9681 9678 9675 9672 9670 9668 9666 9663 9659 9656 9653 9651 9650 9650 9649 9647 9645 9644 9642 9642 9641 9641 9641 9641 9642 9642 9643 9644 9644 9644 9645 9647 9649 9649 9650 9651 9652 9654 9655 9656 9657 9659 9661 9664 9666 9668 9670
9942 9932 9922 9912 9902 9892 9882 9872 9862 9853 9843 9834 9825 9816 9807 9799 9791 9784 9777 9770 9764 9757 9750 9744 9737 9731 9725 9719 9713 9708 9703 9698 9694 9690 9687 9684 9680 9675 9671 9668 9665 9662 9660 9658 9656 9654 9650 9647 9644 9642 9640 9640 9639 9638 9636 9634 9633 9633 9632 9632 9632 9632 9633 9633 9634 9635 9635 9635 9637 9638 9640 9640 9641 9642 9643 9645 9646 9647 9648 9650 9652 9654 9657 9659 9661
9930 9920 9911 9901 9891 9882 9872 9861 9852 9842 9832 9823 9814 9805 9797 9789 9781 9774 9767 9759 9753 9747 9740 9733 9727 9721 9716 9710 9704 9698 9693 9688 9684 9680 9677 9673 9670 9666 9662 9658 9655 9652 9650 9649 9647 9644 9641 9638 9636 9633 9631 9630 9629 9629 9627 9626 9624 9624 9623 9623 9622 9623 9624 9625 9626 9626 9626 9627 9628 9629 9631 9632 9632 9633 9634 9636 9637 9638 9640 9641 9643 9645 9648 9650 9652
9918 9909 9899 9890 9880 9871 9861 9851 9841 9832 9822 9813 9803 9794 9786 9779 9771 9764 9757 9750 9743 9736 9730 9723 9717 9711 9705 9700 9694 9689 9684 9679 9675 9671 9667 9664 9660 9656 9652 9649 9645 9642 9640 9639 9638 9635 9632 9629 9627 9625 9623 9621 9620 9619 9619 9617 9616 9615 9614 9614 9613 9614 9615 9616 9617 9618 9618 9619 9619 9621 9622 9624 9624 9625 9626 9627 9629 9630 9631 9633 9635 9637 9639 9642 9644
9906 9896 9887 9878 9869 9859 9850 9840 9830 9821 9811 9802 9794 9785 9777 9769 9761 9754 9747 9740 9733 9726 9720 9713 9707 9701 9696 9690 9684 9679 9675 9670 9666 9662 9658 9655 9651 9648 9643 9639 9636 9633 9631 9630 9628 9626 9623 9620 9618 9617 9615 9613 9612 9611 9610 9609 9608 9607 9606 9605 9605 9605 9606 9607 9608 9610 9610 9611 9611 9612 9614 9616 9616 9616 9617 9619 9621 9622 9623 9625 9626 9629 9631 9634 9636
9894 9884 9875 9865 9856 9847 9837 9828 9819 9810 9801 9792 9783 9775 9766 9758 9751 9744 9737 9730 9724 9716 9709 9703 9697 9691 9686 9680 9675 9670 9665 9660 9656 9652 9649 9645 9642 9639 9635 9631 9627 9624 9622 9620 9619 9617 9614 9612 9610 9608 9607 9605 9603 9602 9602 9601 9600 9599 9598 9597 9597 9597 9598 9599 9600 9601 9602 9603 9604 9604 9606 9607 9608 9609 9610 9611 9613 9615 9616 9617 9618 9621 9623 9626 9628
9884 9874 9865 9855 9845 9835 9826 9816 9807 9798 9789 9781 9772 9764 9756 9748 9740 9734 9727 9721 9714 9708 9700 9693 9687 9681 9676 9671 9666 9661 9656 9651 9647 9643 9640 9636 9633 9630 9626 9623 9619 9616 9614 9612 9609 9607 9605 9603 9602 9600 9599 9597 9595 9594 9594 9593 9593 9592 9590 9589 9589 9590 9590 9591 9592 9593 9594 9595 9596 9597 9598 9599 9601 9601 9602 9603 9605 9607 9608 9609 9611 9613 9616 9618 9621